试验-27F(SHIYAN 27F)

导读 | 星芒AI

SHIYAN 27F 是一颗由中国研制的试验卫星,主要用于开展空间科学与技术试验。该卫星属于中国“试验”系列卫星之一,旨在验证新型卫星平台、通信技术、导航增强系统等关键技术,为未来卫星应用和空间任务提供技术储备。它于2023年成功发射,运行在地球轨道上,具备良好的稳定性和数据传输能力。此次任务进一步推动了中国在卫星技术领域的自主创新与发展。

基本信息
目录编号:
63604
目录名称:
SHIYAN 27F
国际标识:
2025-078F
轨道中心:
EARTH
卫星名称:
试验-27F
卫星全名:
试验-27F(SHIYAN 27F)
卫星状态:
在轨 (已飞行239 天)
发射日期:
2025-04-18 UTC
国别 :
中国 (CN)
星等 :
--
轨道信息
数据来源 国际轨道数据 AOE轨道数据
星历时间 2025-12-13T07:24:43+0800
9小时前
查看轨道信息
2025-12-08T20:00:00+0800
4天前
查看轨道信息
半长轴 7423.918km 7423.923km
偏心率 0.0000726 0.0000807
轨道倾角 99.692° 99.692°
近地点辐角 96.717° 98.741°
升交点赤经 351.979° 347.571°
平近点角 263.405° 5.238°
近地点 1045.244km 1045.188km
远地点 1046.322km 1046.388km
周期 106.099分钟 106.099分钟
每日圈数 13.572289 13.572274
详细信息
使用方式:
暂无
2D轨道图
3D轨道图
轨道高度分析图
轨道倾角分析图
轨道综合分析图
查看轨道综合分析图